Greenville Downtown, SC

2:16 AM EST on December 18, 2017 (GMT -0500)
Greenville Downtown

Weather History for KGMU - February, 2012

Change the Weather History Date:

Saturday, February 4, 2012

  Actual Average Record
Temperature  
Mean Temperature 50 °F -  
Max Temperature 54 °F 51 °F 69 °F (1999)
Min Temperature 46 °F 34 °F 16 °F (2009)
Degree Days  
Heating Degree Days 15    
Moisture  
Dew Point 43 °F    
Average Humidity 76    
Maximum Humidity 93    
Minimum Humidity 50    
Precipitation  
Precipitation 0.06 in - - ()
Sea Level Pressure  
Sea Level Pressure 30.22 in    
Wind  
Wind Speed 3 mph (West)    
Max Wind Speed 9 mph    
Max Gust Speed -    
Visibility 9 miles    
Events Rain    
Averages and records for this station are not official NWS values.
T = Trace of Precipitation, MM = Missing Value Source: NWS Daily Summary

Daily Weather History Graph

Daily Weather History Graph

Search for Another Location

Airport or City:

Trip Planner

Search our weather history database for the weather conditions in past years. The results will help you decide how hot, cold, wet, or windy it might be!

Date:

Astronomy

Feb. 04, 2012 Rise Set
Actual Time 7:25 AM EST 6:01 PM EST
Civil Twilight 6:59 AM EST 6:27 PM EST
Nautical Twilight 6:29 AM EST 6:57 PM EST
Astronomical Twilight 5:59 AM EST 7:27 PM EST
Moon 3:01 PM EST (2/4) 4:45 AM EST (2/4)
Length of Visible Light 11h 27m
Length of Day
10h 35m
Waxing Gibbous, 89% of the Moon is Illuminated
Feb 4
Waxing Gibbous
Feb 7
Full
Feb 14
Last Quarter
Feb 21
New
Feb 29
First Quarter

Hourly Weather History & Observations

Time (EST) Temp. Windchill Dew Point Humidity Pressure Visibility Wind Dir Wind Speed Gust Speed Precip Events Conditions
12:53 AM 51.1 °F - 33.1 °F 50% 30.35 in 10.0 mi East 3.5 mph - N/A   Overcast
1:53 AM 48.9 °F - 35.1 °F 59% 30.35 in 10.0 mi Calm Calm - 0.00 in Rain Light Rain
2:53 AM 48.9 °F - 35.1 °F 59% 30.33 in 10.0 mi Calm Calm - 0.00 in   Overcast
3:53 AM 46.9 °F - 37.0 °F 68% 30.33 in 10.0 mi North 3.5 mph - N/A   Overcast
4:53 AM 48.0 °F - 36.0 °F 63% 30.32 in 10.0 mi Calm Calm - N/A   Overcast
5:53 AM 48.0 °F - 37.9 °F 68% 30.32 in 10.0 mi Calm Calm - 0.00 in Rain Light Rain
6:53 AM 48.0 °F - 39.0 °F 71% 30.31 in 10.0 mi Calm Calm - 0.00 in   Overcast
7:53 AM 48.0 °F - 39.0 °F 71% 30.32 in 10.0 mi Calm Calm - 0.00 in   Overcast
8:15 AM 48.2 °F - 39.2 °F 71% 30.30 in 10.0 mi Calm Calm - N/A   Overcast
8:53 AM 48.9 °F - 39.0 °F 69% 30.30 in 10.0 mi NE 3.5 mph - N/A   Overcast
9:53 AM 48.9 °F - 39.9 °F 71% 30.30 in 6.0 mi Calm Calm - 0.01 in Rain Light Rain
10:53 AM 46.0 °F 44.8 °F 41.0 °F 83% 30.29 in 10.0 mi NW 3.5 mph - 0.00 in   Overcast
11:27 AM 46.4 °F 45.2 °F 42.8 °F 87% 30.26 in 10.0 mi WNW 3.5 mph - N/A   Overcast
11:53 AM 46.9 °F - 43.0 °F 86% 30.27 in 8.0 mi WNW 4.6 mph - 0.00 in   Overcast
12:53 PM 46.9 °F - 44.1 °F 90% 30.23 in 8.0 mi West 3.5 mph - 0.00 in   Overcast
1:53 PM 50.0 °F - 46.0 °F 86% 30.18 in 9.0 mi Calm Calm - N/A   Overcast
2:46 PM 51.8 °F - 46.4 °F 82% 30.15 in 8.0 mi WSW 8.1 mph - N/A   Overcast
2:53 PM 52.0 °F - 46.0 °F 80% 30.15 in 9.0 mi SW 8.1 mph - N/A   Overcast
3:53 PM 54.0 °F - 46.9 °F 77% 30.14 in 10.0 mi WSW 9.2 mph - N/A   Mostly Cloudy
4:53 PM 54.0 °F - 48.0 °F 80% 30.13 in 10.0 mi WSW 8.1 mph - N/A   Overcast
5:53 PM 54.0 °F - 48.0 °F 80% 30.12 in 9.0 mi WSW 6.9 mph - N/A   Overcast
6:53 PM 53.1 °F - 48.0 °F 83% 30.11 in 9.0 mi WSW 4.6 mph - N/A   Mostly Cloudy
7:53 PM 53.1 °F - 48.0 °F 83% 30.10 in 8.0 mi West 3.5 mph - N/A   Scattered Clouds
8:53 PM 53.1 °F - 48.0 °F 83% 30.09 in 8.0 mi Calm Calm - N/A   Overcast
9:53 PM 53.1 °F - 48.0 °F 83% 30.08 in 7.0 mi Calm Calm - N/A   Overcast
10:53 PM 53.1 °F - 48.9 °F 86% 30.06 in 7.0 mi Calm Calm - N/A   Overcast
11:53 PM 52.0 °F - 50.0 °F 93% 30.06 in 2.5 mi West 5.8 mph - 0.05 in Rain Heavy Rain